This demonstration page uses our WeatherBlox Daily Observations layout. Learn more.

Left ArrowRight Arrow

Hourly Observations for April 16, 2016

Temp ( °F °C ) Dew Point ( °F °C ) Humidity (%) Winds ( mph kmh ) Pressure ( in mb ) Visibility ( mi km ) Precip ( " mm )
12:54 am 00:54 Clear 62 16.7 51 10.6 67 67 SSE 14 22 29.92 1013 10 16 0.00 0.00
1:54 am 01:54 Clear 62 16.7 51 10.6 67 67 SSE 13 20 29.93 1014 10 16 0.00 0.00
2:54 am 02:54 Clear 61 16.1 52 11.1 72 72 SSE 17 28 29.93 1014 10 16 0.00 0.00
3:54 am 03:54 Mostly Cloudy 60 15.6 52 11.1 75 75 SSE 14 22 29.95 1014 10 16 0.00 0.00
4:54 am 04:54 Partly Cloudy 60 15.6 53 11.7 78 78 SSE 14 22 29.96 1014 10 16 0.00 0.00
5:54 am 05:54 Cloudy 60 15.6 53 11.7 78 78 SE 13 20 29.96 1014 10 16 0.00 0.00
6:54 am 06:54 Mostly Cloudy 60 15.6 53 11.7 78 78 SSE 15 24 29.98 1015 10 16 0.00 0.00
7:50 am 07:50 Cloudy 61 16 54 12 77 77 SSE 13 20 30.03 1017 10 16 0.00 0.00
7:54 am 07:54 Cloudy 60 15.6 53 11.7 78 78 SE 14 22 30.01 1016 10 16 0.00 0.00
8:54 am 08:54 Cloudy 61 16.1 53 11.7 75 75 SSE 16 26 30.01 1016 10 16 0.00 0.00
9:54 am 09:54 Cloudy 62 16.7 54 12.2 75 75 SSE 16 26 30.02 1017 10 16 0.00 0.00
10:37 am 10:37 Cloudy 63 17.2 54 12.2 73 73 S 17 28 30.03 1017 10 16 0.00 0.00
10:54 am 10:54 Cloudy 63 17.2 54 12.2 73 73 SSE 18 30 30.04 1017 10 16 0.00 0.00
11:54 am 11:54 Cloudy 65 18.3 54 12.2 68 68 SE 16 26 30.05 1018 10 16 0.00 0.00
12:43 pm 12:43 Cloudy 68 20 55 12.8 63 63 SE 15 24 30.03 1017 10 16 0.00 0.00
12:54 pm 12:54 Cloudy 68 20 54 12.2 61 61 SE 16 26 30.04 1017 10 16 0.00 0.00
1:54 pm 13:54 Cloudy 70 21.1 53 11.7 55 55 SE 17 28 30.02 1017 10 16 0.00 0.00
2:54 pm 14:54 Cloudy 70 21.1 53 11.7 55 55 SSE 16 26 30.01 1016 10 16 0.00 0.00
3:54 pm 15:54 Cloudy 72 22.2 53 11.7 52 52 SE 20 31 30.02 1017 10 16 0.00 0.00
4:54 pm 16:54 Mostly Cloudy 72 22.2 53 11.7 52 52 SSE 15 24 30.01 1016 10 16 0.00 0.00
5:54 pm 17:54 Partly Cloudy 71 21.7 52 11.1 51 51 SE 18 30 30.01 1016 10 16 0.00 0.00
6:54 pm 18:54 Sunny 71 21.7 52 11.1 51 51 SE 14 22 30.01 1016 10 16 0.00 0.00
7:54 pm 19:54 Sunny 70 21.1 52 11.1 53 53 ESE 14 22 30.01 1016 10 16 0.00 0.00
8:54 pm 20:54 Mostly Clear 68 20 53 11.7 59 59 SE 9 15 30.03 1017 10 16 0.00 0.00
9:54 pm 21:54 Cloudy 69 20.6 53 11.7 57 57 SE 13 20 30.04 1017 10 16 0.00 0.00
10:54 pm 22:54 Mostly Cloudy 67 19.4 53 11.7 61 61 ESE 12 19 30.04 1017 10 16 0.00 0.00
11:54 pm 23:54 Partly Cloudy 66 18.9 53 11.7 63 63 ESE 13 20 30.05 1018 10 16 0.00 0.00

Powered by AerisWeather